Date String (YYYY-MM-DD hh:mm:ss) UTC,Instrument flags,Ambient pressure (hPa),Sample flow (lpm),Bypass flow (lpm),Sample temperature (°C),Ambient temperature (°C),ASC tube jacket temperature (°C),LED temperature (°C),Box temperature (°C),Sample RH (%),Span deviation,Mass concentration (μg/m³),Mass concentration (μg/m³),Mass concentration (μg/m³)
DateTimeUTC,F1_M11,P_M11,Q1_M11,Q2_M11,T1_M11,T2_M11,T3_M11,T4_M11,T5_M11,U1_M11,ZSPAN_M11,X0_M11,X2_M11,X1_M11
2022-10-13 03:00:00,,0830.6,5.00,0.00,30.6,29.0,00.0,39.4,32.4,13.0,0000.0,0018.51,0005.62,0004.35
2022-10-13 03:01:00,,0830.6,5.00,0.00,30.6,28.9,00.0,39.4,32.3,13.0,0000.0,0019.02,0005.59,0004.35
2022-10-13 03:02:00,,0830.6,5.00,0.00,30.6,28.9,00.0,39.4,32.3,13.0,0000.0,0019.74,0005.61,0004.35
2022-10-13 03:03:00,,0830.6,5.02,0.00,30.5,28.9,00.0,39.4,32.3,13.0,0000.0,0019.85,0005.61,0004.34
2022-10-13 03:04:00,,0830.6,5.00,0.00,30.5,29.0,00.0,39.4,32.3,13.0,0000.0,0019.83,0005.58,0004.32
2022-10-13 03:05:00,,0830.6,4.99,0.00,30.5,28.9,00.0,39.4,32.3,13.0,0000.0,0018.74,0005.53,0004.30
2022-10-13 03:06:00,,0830.6,5.00,0.00,30.5,28.9,00.0,39.4,32.3,13.0,0000.0,0017.84,0005.53,0004.29
2022-10-13 03:07:00,,0830.7,5.00,0.00,30.5,28.9,00.0,39.4,32.3,13.0,0000.0,0017.44,0005.45,0004.27
2022-10-13 03:08:00,,0830.8,5.00,0.00,30.5,29.0,00.0,39.4,32.3,13.0,0000.0,0016.28,0005.43,0004.25
2022-10-13 03:09:00,,0830.8,5.00,0.00,30.5,29.0,00.0,39.4,32.3,13.0,0000.0,0015.73,0005.44,0004.24
2022-10-13 03:10:00,,0830.8,5.00,0.00,30.5,29.0,00.0,39.4,32.3,13.1,0000.0,0015.15,0005.39,0004.24
2022-10-13 03:11:00,,0830.8,4.99,0.00,30.5,29.0,00.0,39.4,32.3,13.1,0000.0,0015.85,0005.40,0004.24
2022-10-13 03:12:00,,0830.7,5.00,0.00,30.5,29.0,00.0,39.4,32.3,13.0,0000.0,0016.46,0005.39,0004.24
2022-10-13 03:13:00,,0830.8,5.01,0.00,30.5,29.0,00.0,39.4,32.3,13.0,0000.0,0017.35,0005.39,0004.23
2022-10-13 03:14:00,,0830.7,5.00,0.00,30.5,29.0,00.0,39.4,32.3,13.0,0000.0,0018.50,0005.42,0004.23
2022-10-13 03:15:00,,0830.8,5.00,0.00,30.5,29.0,00.0,39.4,32.3,13.1,0000.0,0018.36,0005.49,0004.25
2022-10-13 03:16:00,,0830.7,4.99,0.00,30.5,29.0,00.0,39.4,32.3,13.1,0000.0,0019.19,0005.52,0004.27
2022-10-13 03:17:00,,0830.7,5.00,0.00,30.5,29.0,00.0,39.4,32.3,13.0,0000.0,0018.32,0005.51,0004.26
2022-10-13 03:18:00,,0830.7,5.00,0.00,30.5,29.0,00.0,39.4,32.3,13.0,0000.0,0019.72,0005.55,0004.26
2022-10-13 03:19:00,,0830.8,5.00,0.00,30.5,29.0,00.0,39.4,32.3,13.0,0000.0,0019.96,0005.52,0004.26
2022-10-13 03:20:00,,0830.8,5.00,0.00,30.5,28.9,00.0,39.4,32.3,13.0,0000.0,0020.91,0005.53,0004.26
2022-10-13 03:21:00,,0830.8,5.00,0.00,30.5,28.9,00.0,39.4,32.3,13.0,0000.0,0021.42,0005.59,0004.26
2022-10-13 03:22:00,,0830.7,5.00,0.00,30.5,28.9,00.0,39.4,32.3,13.0,0000.0,0021.19,0005.61,0004.27
2022-10-13 03:23:00,,0830.7,5.00,0.00,30.5,28.9,00.0,39.4,32.3,13.0,0000.0,0020.33,0005.67,0004.27
2022-10-13 03:24:00,,0830.8,5.00,0.00,30.5,28.9,00.0,39.4,32.3,13.0,0000.0,0019.30,0005.68,0004.28
2022-10-13 03:25:00,,0830.8,5.02,0.00,30.5,28.8,00.0,39.4,32.3,13.0,0000.0,0018.16,0005.67,0004.28
2022-10-13 03:26:00,,0830.8,5.00,0.00,30.5,28.8,00.0,39.4,32.3,13.0,0000.0,0018.28,0005.68,0004.27
2022-10-13 03:27:00,,0830.8,5.00,0.00,30.5,28.8,00.0,39.4,32.3,13.1,0000.0,0017.08,0005.71,0004.27
2022-10-13 03:28:00,,0830.8,5.00,0.00,30.5,28.8,00.0,39.4,32.3,13.0,0000.0,0017.31,0005.73,0004.27
2022-10-13 03:29:00,,0830.8,4.99,0.00,30.5,28.8,00.0,39.4,32.3,13.1,0000.0,0015.95,0005.76,0004.27
2022-10-13 03:30:00,,0830.8,5.02,0.00,30.5,28.8,00.0,39.3,32.2,13.1,0000.0,0017.18,0005.80,0004.27
2022-10-13 03:31:00,,0830.7,5.00,0.00,30.5,28.8,00.0,39.3,32.2,13.1,0000.0,0017.34,0005.81,0004.26
2022-10-13 03:32:00,,0830.7,5.00,0.00,30.5,28.8,00.0,39.3,32.2,13.1,0000.0,0017.49,0005.73,0004.24
2022-10-13 03:33:00,,0830.7,5.00,0.00,30.5,28.8,00.0,39.3,32.2,13.1,0000.0,0017.66,0005.72,0004.23
2022-10-13 03:34:00,,0830.8,5.00,0.00,30.5,28.8,00.0,39.3,32.2,13.1,0000.0,0017.57,0005.70,0004.24
2022-10-13 03:35:00,,0830.8,5.00,0.00,30.4,28.7,00.0,39.3,32.2,13.2,0000.0,0017.43,0005.65,0004.23
2022-10-13 03:36:00,,0830.8,4.99,0.00,30.4,28.7,00.0,39.3,32.2,13.2,0000.0,0017.28,0005.70,0004.25
2022-10-13 03:37:00,,0830.8,5.00,0.00,30.4,28.8,00.0,39.3,32.2,13.2,0000.0,0017.48,0005.68,0004.26
2022-10-13 03:38:00,,0830.9,5.00,0.00,30.4,28.8,00.0,39.3,32.2,13.2,0001.1,0018.24,0005.67,0004.26
2022-10-13 03:39:00,,0830.9,5.02,0.00,30.4,28.8,00.0,39.3,32.2,13.1,0000.3,0017.91,0005.66,0004.27
2022-10-13 03:40:00,,0830.9,5.00,0.00,30.4,28.7,00.0,39.3,32.2,13.2,0000.0,0018.12,0005.67,0004.29
2022-10-13 03:41:00,,0831.0,4.99,0.00,30.4,28.7,00.0,39.3,32.2,13.2,0000.0,0017.22,0005.67,0004.32
2022-10-13 03:42:00,,0831.0,5.00,0.00,30.4,28.7,00.0,39.3,32.2,13.2,0000.9,0016.85,0005.70,0004.35
2022-10-13 03:43:00,,0831.1,4.99,0.00,30.4,28.7,00.0,39.3,32.2,13.2,0000.0,0017.83,0005.76,0004.39
2022-10-13 03:44:00,,0831.0,5.00,0.00,30.4,28.7,00.0,39.3,32.2,13.3,0000.0,0018.15,0005.81,0004.41
2022-10-13 03:45:00,,0831.0,5.01,0.00,30.4,28.7,00.0,39.3,32.2,13.3,0000.0,0018.14,0005.88,0004.43
2022-10-13 03:46:00,,0831.1,4.99,0.00,30.4,28.8,00.0,39.3,32.2,13.4,0000.0,0018.46,0005.97,0004.46
2022-10-13 03:47:00,,0831.0,4.99,0.00,30.4,28.8,00.0,39.3,32.2,13.3,0000.0,0018.47,0006.02,0004.48
2022-10-13 03:48:00,,0831.0,5.00,0.00,30.4,28.8,00.0,39.3,32.2,13.3,0000.0,0019.05,0006.04,0004.52
2022-10-13 03:49:00,,0831.0,4.99,0.00,30.4,28.8,00.0,39.3,32.2,13.3,0000.0,0019.25,0006.06,0004.55
2022-10-13 03:50:00,,0831.0,5.00,0.00,30.4,28.8,00.0,39.3,32.2,13.3,0000.0,0019.34,0006.09,0004.58
2022-10-13 03:51:00,,0831.1,5.01,0.00,30.4,28.8,00.0,39.2,32.2,13.3,0000.0,0019.03,0006.10,0004.61
2022-10-13 03:52:00,,0831.1,5.01,0.00,30.4,28.8,00.0,39.2,32.2,13.3,0000.0,0019.32,0006.10,0004.61
2022-10-13 03:53:00,,0831.0,5.00,0.00,30.4,28.8,00.0,39.2,32.2,13.3,0000.0,0018.75,0006.11,0004.62
2022-10-13 03:54:00,,0831.1,5.00,0.00,30.4,28.8,00.0,39.2,32.2,13.3,0000.0,0018.37,0006.15,0004.64
2022-10-13 03:55:00,,0831.1,5.00,0.00,30.4,28.8,00.0,39.2,32.2,13.3,0000.0,0017.82,0006.11,0004.65
2022-10-13 03:56:00,,0831.1,5.00,0.00,30.4,28.8,00.0,39.2,32.2,13.3,0000.0,0017.85,0006.06,0004.67
2022-10-13 03:57:00,,0831.2,4.99,0.00,30.4,28.8,00.0,39.2,32.2,13.3,0000.0,0018.92,0006.07,0004.68
2022-10-13 03:58:00,,0831.2,5.00,0.00,30.4,28.8,00.0,39.2,32.2,13.3,0000.0,0019.86,0006.02,0004.69
2022-10-13 03:59:00,,0831.2,5.00,0.00,30.4,28.8,00.0,39.2,32.2,13.2,0000.0,0019.65,0006.02,0004.70
